STARLINK-38232, 100260

Orbit data source: Space-Track

STARLINK-38232, 100260 is a payload satellite owned by SpaceX/Seattle (US) in SSO that was launched on Sat, 08 Aug 2026 UTC launched from the Air Force Western Test Range (AFWTR). Payload-class satellites include a variety of spacecraft equipped with specific instruments for various scientific and technological missions. These include communications satellites like Starlink; space stations such as the ISS; scientific satellites like the Hubble; Earth observation satellites from companies like Planet Labs, Umbra, and HawkEye 360; GPS; miniature CubeSats for education and research; and military/defense satellites.

Loading next visibility...
Identifier
100260, 2026-181Q
Orbit
SSO
Country
Flag of USUS
Related business
Manufacturer
SpaceX/Seattle
Mission
Operational spacecraft
Bus & Motor
STARLINK V2MO, Unknown motor
Mass
575 kg wet, ~530 kg dry
Launch date (UTC)
2026-08-08 (1 month ago)
Launch vehicle
Unknown
Launch site
Air Force Western Test Range (AFWTR)
Object type
Payload
Rocket body
Debris
Shape & HBR
BOX + PAN, 17.7 m
Radar Cross Section
RCS unknown

Expand to show TLE details & history
Last TLE update: 5 hours ago

TLE from 5 hours ago
0 STARLINK-38232
1 A0260U 26181Q   26249.62672801  .00131690  00000-0  87207-3 0  9998
2 A0260  97.2851 292.4941 0002111  81.5855 278.5649 15.75140071  5771
Epoch: 2026-09-06T15:02Z
TLE epoch observation values (Epoch: 2026-09-06T15:02:29.300Z)
Latitude
-0.00004°
Longitude
81.15288°
Altitude
347.19 km
Speed
7.701 km/s
True Right ascension
19h 29m 58s
True Declination
0° 00' 00"
Sunlit
Object was in full shadow at epoch
Visualization orbit readout
Latitude
Unknown
Longitude
Unknown
Altitude
Unknown
Speed
Unknown
Apparent Right ascension
Unknown
Apparent Declination
Unknown
Sunlit
N/A
Visualization observer readout
Local Sidereal Time
12:21:14
Azimuth
Unknown
Elevation
Unknown
Doppler factor
Unknown
Orbital elements
Apogee altitude
342.539 km
Perigee altitude
339.702 km
Semi-major axis
6,719.257 km
Eccentricity
0.00021
Inclination
97.2851°
RAAN
292.4941°
Arg. of periapsis
81.5855°
True anomaly
278.54098°
Mean anomaly
278.5649°
Eccentric anomaly
278.55294°
Mean motion
3.94059 °/min
Orbital period
91.36 mins
BSTAR
0.00087207
Loading maneuver chart data...
Computing Atmospheric mass density...
Loading historical data...
Loading historical data...
Loading historical data...
Loading historical data...
Loading historical data...
Loading historical data...
Loading historical data...

Documentation

Showing up to 5 results
|